| time (UTC) | temp F | wind direction | speed MPH | gust MPH | rain 1hr in | rain 24hr in | rain mn in | humidity % | barometer mb |
| 20260504205337 | 83 | 0.0 | 0.0 | 0.00 | 0.00 | 0.00 | 52 | 989.0 | |
| 20260504204828 | 83 | 0.0 | 0.0 | 0.00 | 0.00 | 0.00 | 52 | 989.0 | |
| 20260504204330 | 83 | 0.0 | 0.0 | 0.00 | 0.00 | 0.00 | 55 | 989.1 | |
| 20260504203820 | 82 | 0.0 | 0.0 | 0.00 | 0.00 | 0.00 | 51 | 989.1 | |
| 20260504203326 | 82 | 0.0 | 0.0 | 0.00 | 0.00 | 0.00 | 52 | 989.1 | |
| 20260504202837 | 82 | 0.0 | 0.0 | 0.00 | 0.00 | 0.00 | 51 | 989.2 | |
| 20260504202341 | 82 | 0.0 | 0.0 | 0.00 | 0.00 | 0.00 | 54 | 989.2 | |
| 20260504201830 | 82 | 0.0 | 0.0 | 0.00 | 0.00 | 0.00 | 54 | 989.2 | |
| 20260504201317 | 82 | 0.0 | 0.0 | 0.00 | 0.00 | 0.00 | 52 | 989.3 | |
| 20260504200823 | 82 | 0.0 | 0.0 | 0.00 | 0.00 | 0.00 | 53 | 989.3 | |
| 20260504200334 | 82 | 0.0 | 0.0 | 0.00 | 0.00 | 0.00 | 52 | 989.3 | |
| 20260504195818 | 82 | 0.0 | 0.0 | 0.00 | 0.00 | 0.00 | 53 | 989.5 | |
| 20260504195324 | 82 | 0.0 | 0.0 | 0.00 | 0.00 | 0.00 | 53 | 989.5 | |
| 20260504194830 | 81 | 0.0 | 0.0 | 0.00 | 0.00 | 0.00 | 54 | 989.5 | |
| 20260504194317 | 81 | 0.0 | 0.0 | 0.00 | 0.00 | 0.00 | 54 | 989.6 | |
| 20260504193828 | 81 | 0.0 | 0.0 | 0.00 | 0.00 | 0.00 | 53 | 989.6 | |
| 20260504193332 | 81 | 0.0 | 0.0 | 0.00 | 0.00 | 0.00 | 53 | 989.6 | |
| 20260504192818 | 81 | 0.0 | 0.0 | 0.00 | 0.00 | 0.00 | 53 | 989.8 | |
| 20260504192331 | 81 | 0.0 | 0.0 | 0.00 | 0.00 | 0.00 | 51 | 989.8 | |
| 20260504191816 | 80 | 0.0 | 0.0 | 0.00 | 0.00 | 0.00 | 53 | 989.8 | |
| 20260504191322 | 81 | 0.0 | 0.0 | 0.00 | 0.00 | 0.00 | 51 | 989.8 | |
| 20260504190828 | 81 | 0.0 | 0.0 | 0.00 | 0.00 | 0.00 | 55 | 989.8 | |
| 20260504190313 | 80 | 0.0 | 0.0 | 0.00 | 0.00 | 0.00 | 53 | 989.8 | |
| 20260504185825 | 80 | 0.0 | 0.0 | 0.00 | 0.00 | 0.00 | 53 | 989.7 | |
| 20260504185331 | 79 | 0.0 | 0.0 | 0.00 | 0.00 | 0.00 | 58 | 989.7 | |
| 20260504184817 | 78 | 0.0 | 0.0 | 0.00 | 0.00 | 0.00 | 55 | 989.7 | |
| 20260504184329 | 79 | 0.0 | 0.0 | 0.00 | 0.00 | 0.00 | 53 | 990.0 | |
| 20260504183814 | 79 | 0.0 | 0.0 | 0.00 | 0.00 | 0.00 | 52 | 990.0 | |
| 20260504183328 | 79 | 0.0 | 0.0 | 0.00 | 0.00 | 0.00 | 54 | 990.0 | |
| 20260504182812 | 78 | 0.0 | 0.0 | 0.00 | 0.00 | 0.00 | 57 | 990.1 | |
| 20260504182319 | 79 | 0.0 | 0.0 | 0.00 | 0.00 | 0.00 | 57 | 990.1 | |
| 20260504181824 | 79 | 0.0 | 0.0 | 0.00 | 0.00 | 0.00 | 54 | 990.1 | |
| 20260504181337 | 79 | 0.0 | 0.0 | 0.00 | 0.00 | 0.00 | 57 | 990.1 | |
| 20260504180822 | 78 | 0.0 | 0.0 | 0.00 | 0.00 | 0.00 | 55 | 990.1 | |
| 20260504180326 | 78 | 0.0 | 0.0 | 0.00 | 0.00 | 0.00 | 54 | 990.1 | |
| 20260504175818 | 78 | 0.0 | 0.0 | 0.00 | 0.00 | 0.00 | 56 | 990.1 | |
| 20260504175324 | 79 | 0.0 | 0.0 | 0.00 | 0.00 | 0.00 | 58 | 990.1 | |
| 20260504174853 | 78 | 0.0 | 0.0 | 0.00 | 0.00 | 0.00 | 57 | 990.1 | |
| 20260504174318 | 78 | 0.0 | 0.0 | 0.00 | 0.00 | 0.00 | 55 | 990.3 | |
| 20260504173844 | 78 | 0.0 | 0.0 | 0.00 | 0.00 | 0.00 | 59 | 990.3 | |
| 20260504173316 | 78 | 0.0 | 0.0 | 0.00 | 0.00 | 0.00 | 58 | 990.3 | |
| 20260504172821 | 77 | 0.0 | 0.0 | 0.00 | 0.00 | 0.00 | 57 | 990.4 | |
| 20260504172325 | 77 | 0.0 | 0.0 | 0.00 | 0.00 | 0.00 | 59 | 990.4 | |
| 20260504171837 | 77 | 0.0 | 0.0 | 0.00 | 0.00 | 0.00 | 55 | 990.4 | |
| 20260504171320 | 76 | 0.0 | 0.0 | 0.00 | 0.00 | 0.00 | 59 | 990.5 | |
| 20260504170830 | 76 | 0.0 | 0.0 | 0.00 | 0.00 | 0.00 | 57 | 990.5 | |
| 20260504170335 | 76 | 0.0 | 0.0 | 0.00 | 0.00 | 0.00 | 57 | 990.5 | |
| 20260504160321 | 73 | 0.0 | 0.0 | 0.00 | 0.00 | 0.00 | 60 | 990.7 | |
| 20260504150829 | 68 | 0.0 | 0.0 | 0.00 | 0.00 | 0.00 | 60 | 991.2 | |
| 20260504150315 | 69 | 0.0 | 0.0 | 0.00 | 0.00 | 0.00 | 60 | 991.2 | |
| 20260504141330 | 69 | 0.0 | 0.0 | 0.00 | 0.00 | 0.00 | 58 | 991.2 | |
| 20260504140816 | 69 | 0.0 | 0.0 | 0.00 | 0.00 | 0.00 | 58 | 991.2 | |
| 20260504140322 | 70 | 0.0 | 0.0 | 0.00 | 0.00 | 0.00 | 58 | 991.2 | |
| 20260504130335 | 66 | 0.0 | 0.0 | 0.00 | 0.00 | 0.00 | 63 | 991.4 | |
| 20260504120318 | 64 | 0.0 | 0.0 | 0.00 | 0.00 | 0.00 | 61 | 991.6 | |
| 20260504110333 | 64 | 0.0 | 0.0 | 0.00 | 0.00 | 0.00 | 60 | 991.3 | |
| 20260504100343 | 65 | 0.0 | 0.0 | 0.00 | 0.00 | 0.00 | 59 | 992.2 | |
| 20260504081825 | 63 | 0.0 | 0.0 | 0.00 | 0.00 | 0.00 | 64 | 992.9 | |
| 20260504081329 | 63 | 0.0 | 0.0 | 0.00 | 0.00 | 0.00 | 65 | 993.0 | |
| 20260504080815 | 63 | 0.0 | 0.0 | 0.00 | 0.00 | 0.00 | 65 | 993.0 | |
| 20260504080321 | 63 | 0.0 | 0.0 | 0.00 | 0.00 | 0.00 | 65 | 993.0 | |
| 20260504070314 | 64 | 0.0 | 0.0 | 0.00 | 0.00 | 0.00 | 66 | 993.9 | |
| 20260504050323 | 64 | 0.0 | 0.0 | 0.00 | 0.00 | 0.00 | 71 | 993.9 | |
| 20260504045828 | 65 | 0.0 | 0.0 | 0.00 | 0.00 | 0.01 | 72 | 994.0 | |
| 20260504045340 | 65 | 0.0 | 0.0 | 0.00 | 0.00 | 0.01 | 72 | 994.0 | |
| 20260504044846 | 65 | 0.0 | 0.0 | 0.00 | 0.00 | 0.01 | 72 | 994.0 | |
| 20260504044311 | 65 | 0.0 | 0.0 | 0.00 | 0.00 | 0.01 | 72 | 994.0 | |
| 20260504043824 | 65 | 0.0 | 0.0 | 0.00 | 0.00 | 0.01 | 72 | 994.0 | |
| 20260504043329 | 65 | 0.0 | 0.0 | 0.00 | 0.00 | 0.01 | 72 | 994.0 | |
| 20260504042841 | 65 | 0.0 | 0.0 | 0.00 | 0.00 | 0.01 | 72 | 994.1 | |
| 20260504042325 | 65 | 0.0 | 0.0 | 0.00 | 0.00 | 0.01 | 72 | 994.1 | |
| 20260504041832 | 65 | 0.0 | 0.0 | 0.00 | 0.00 | 0.01 | 72 | 994.1 | |
| 20260504041344 | 66 | 0.0 | 0.0 | 0.00 | 0.00 | 0.01 | 71 | 994.3 | |
| 20260504040828 | 66 | 0.0 | 0.0 | 0.00 | 0.00 | 0.01 | 71 | 994.3 | |
| 20260504040334 | 66 | 0.0 | 0.0 | 0.00 | 0.00 | 0.01 | 71 | 994.3 | |
| 20260504035825 | 66 | 0.0 | 0.0 | 0.00 | 0.00 | 0.01 | 70 | 994.4 | |
| 20260504035328 | 66 | 0.0 | 0.0 | 0.00 | 0.00 | 0.01 | 70 | 994.4 | |
| 20260504034813 | 66 | 0.0 | 0.0 | 0.00 | 0.00 | 0.01 | 70 | 994.4 | |
| 20260504034345 | 66 | 0.0 | 0.0 | 0.00 | 0.00 | 0.01 | 70 | 994.5 | |
| 20260504033825 | 66 | 0.0 | 0.0 | 0.00 | 0.00 | 0.01 | 70 | 994.5 | |
| 20260504033316 | 67 | 0.0 | 0.0 | 0.00 | 0.00 | 0.01 | 70 | 994.5 | |
| 20260504032849 | 67 | 0.0 | 0.0 | 0.00 | 0.00 | 0.01 | 69 | 994.7 | |
| 20260504032314 | 67 | 0.0 | 0.0 | 0.00 | 0.00 | 0.01 | 69 | 994.7 | |
| 20260504031820 | 67 | 0.0 | 0.0 | 0.00 | 0.00 | 0.01 | 68 | 994.7 | |
| 20260504031348 | 67 | 0.0 | 0.0 | 0.00 | 0.00 | 0.01 | 69 | 994.6 | |
| 20260504030815 | 67 | 0.0 | 0.0 | 0.00 | 0.00 | 0.01 | 68 | 994.6 | |
| 20260504030319 | 67 | 0.0 | 0.0 | 0.00 | 0.00 | 0.01 | 68 | 994.6 | |
| 20260504025830 | 67 | 0.0 | 0.0 | 0.00 | 0.00 | 0.01 | 69 | 994.7 | |
| 20260504025317 | 67 | 0.0 | 0.0 | 0.00 | 0.00 | 0.01 | 68 | 994.7 | |
| 20260504024822 | 67 | 0.0 | 0.0 | 0.00 | 0.00 | 0.01 | 68 | 994.7 | |
| 20260504024313 | 67 | 0.0 | 0.0 | 0.00 | 0.00 | 0.01 | 68 | 994.7 | |
| 20260504023817 | 67 | 0.0 | 0.0 | 0.00 | 0.00 | 0.01 | 68 | 994.7 | |
| 20260504023328 | 67 | 0.0 | 0.0 | 0.00 | 0.00 | 0.01 | 67 | 994.7 | |
| 20260504022813 | 67 | 0.0 | 0.0 | 0.00 | 0.00 | 0.01 | 67 | 994.8 | |
| 20260504022338 | 67 | 0.0 | 0.0 | 0.00 | 0.00 | 0.01 | 66 | 994.8 | |
| 20260504021828 | 68 | 0.0 | 0.0 | 0.00 | 0.00 | 0.01 | 66 | 994.8 | |
| 20260504021314 | 68 | 0.0 | 0.0 | 0.00 | 0.00 | 0.01 | 65 | 994.9 | |
| 20260504020847 | 68 | 0.0 | 0.0 | 0.00 | 0.00 | 0.01 | 64 | 994.9 | |
| 20260504020332 | 68 | 0.0 | 0.0 | 0.00 | 0.00 | 0.01 | 63 | 994.9 | |
| 20260504015818 | 68 | 0.0 | 0.0 | 0.00 | 0.00 | 0.01 | 62 | 994.8 | |
| 20260504015324 | 69 | 0.0 | 0.0 | 0.00 | 0.00 | 0.01 | 62 | 994.8 | |
| 20260504014835 | 69 | 0.0 | 0.0 | 0.00 | 0.00 | 0.01 | 61 | 994.8 | |
| 20260504014321 | 69 | 0.0 | 0.0 | 0.00 | 0.00 | 0.01 | 61 | 994.8 | |
| 20260504013832 | 69 | 0.0 | 0.0 | 0.00 | 0.00 | 0.01 | 60 | 994.8 | |
| 20260504013319 | 70 | 0.0 | 0.0 | 0.00 | 0.00 | 0.01 | 59 | 994.8 | |
| 20260504012824 | 70 | 0.0 | 0.0 | 0.00 | 0.00 | 0.01 | 60 | 994.9 | |
| 20260504012336 | 70 | 0.0 | 0.0 | 0.00 | 0.00 | 0.01 | 60 | 994.9 | |
| 20260504011817 | 70 | 0.0 | 0.0 | 0.00 | 0.00 | 0.01 | 59 | 994.9 | |
| 20260504011324 | 71 | 0.0 | 0.0 | 0.00 | 0.00 | 0.01 | 58 | 994.8 | |
| 20260504010815 | 71 | 0.0 | 0.0 | 0.00 | 0.00 | 0.01 | 58 | 994.8 | |
| 20260504010321 | 71 | 0.0 | 0.0 | 0.00 | 0.00 | 0.01 | 57 | 994.8 | |
| 20260504005833 | 72 | 0.0 | 0.0 | 0.00 | 0.00 | 0.01 | 56 | 994.8 | |
| 20260504005319 | 72 | 0.0 | 0.0 | 0.00 | 0.00 | 0.01 | 55 | 994.8 | |
| 20260504004851 | 73 | 0.0 | 0.0 | 0.00 | 0.00 | 0.01 | 55 | 994.8 | |
| 20260504004315 | 73 | 0.0 | 0.0 | 0.00 | 0.00 | 0.01 | 54 | 994.9 | |
| 20260504003822 | 73 | 0.0 | 0.0 | 0.00 | 0.00 | 0.01 | 54 | 994.9 | |
| 20260504003355 | 74 | 0.0 | 0.0 | 0.00 | 0.00 | 0.01 | 53 | 994.9 | |
| 20260504002819 | 74 | 0.0 | 0.0 | 0.00 | 0.00 | 0.01 | 53 | 995.1 | |
| 20260504002331 | 74 | 0.0 | 0.0 | 0.00 | 0.00 | 0.01 | 53 | 995.1 | |
| 20260504001816 | 75 | 0.0 | 0.0 | 0.00 | 0.00 | 0.01 | 51 | 995.1 | |
| 20260504001323 | 75 | 0.0 | 0.0 | 0.00 | 0.00 | 0.01 | 51 | 995.0 | |
| 20260504000833 | 76 | 0.0 | 0.0 | 0.00 | 0.00 | 0.01 | 50 | 995.0 | |
| 20260504000318 | 77 | 0.0 | 0.0 | 0.00 | 0.00 | 0.01 | 50 | 995.0 | |
| 20260503235824 | 77 | 0.0 | 0.0 | 0.00 | 0.00 | 0.01 | 49 | 995.1 | |
| 20260503235337 | 77 | 0.0 | 0.0 | 0.00 | 0.00 | 0.01 | 48 | 995.1 | |
| 20260503234822 | 78 | 0.0 | 0.0 | 0.00 | 0.00 | 0.01 | 46 | 995.1 | |
| 20260503234328 | 78 | 0.0 | 0.0 | 0.00 | 0.00 | 0.01 | 45 | 995.2 | |
| 20260503233813 | 79 | 0.0 | 0.0 | 0.00 | 0.00 | 0.01 | 43 | 995.2 | |
| 20260503233345 | 79 | 0.0 | 0.0 | 0.00 | 0.00 | 0.01 | 43 | 995.2 | |
| 20260503232856 | 80 | 0.0 | 0.0 | 0.00 | 0.00 | 0.01 | 43 | 995.4 | |
| 20260503232320 | 79 | 0.0 | 0.0 | 0.00 | 0.00 | 0.01 | 41 | 995.4 | |
| 20260503231846 | 80 | 0.0 | 0.0 | 0.00 | 0.00 | 0.01 | 40 | 995.4 | |
| 20260503231334 | 80 | 0.0 | 0.0 | 0.00 | 0.00 | 0.01 | 41 | 995.4 | |
| 20260503230819 | 80 | 0.0 | 0.0 | 0.00 | 0.00 | 0.01 | 42 | 995.4 | |
| 20260503230351 | 80 | 0.0 | 0.0 | 0.00 | 0.00 | 0.01 | 40 | 995.4 | |
| 20260503225815 | 81 | 0.0 | 0.0 | 0.00 | 0.00 | 0.01 | 43 | 995.4 | |
| 20260503225321 | 81 | 0.0 | 0.0 | 0.00 | 0.00 | 0.01 | 43 | 995.4 | |
| 20260503224826 | 81 | 0.0 | 0.0 | 0.00 | 0.00 | 0.01 | 41 | 995.4 | |
| 20260503224337 | 81 | 0.0 | 0.0 | 0.00 | 0.00 | 0.01 | 42 | 995.4 | |
| 20260503223823 | 81 | 0.0 | 0.0 | 0.00 | 0.00 | 0.01 | 42 | 995.4 | |
| 20260503223328 | 81 | 0.0 | 0.0 | 0.00 | 0.00 | 0.01 | 42 | 995.4 | |
| 20260503222814 | 81 | 0.0 | 0.0 | 0.00 | 0.00 | 0.01 | 42 | 995.5 | |
| 20260503222325 | 81 | 0.0 | 0.0 | 0.00 | 0.00 | 0.01 | 41 | 995.5 | |
| 20260503221850 | 81 | 0.0 | 0.0 | 0.00 | 0.00 | 0.01 | 40 | 995.5 | |
| 20260503221314 | 82 | 0.0 | 0.0 | 0.00 | 0.00 | 0.01 | 41 | 995.5 | |
| 20260503220826 | 82 | 0.0 | 0.0 | 0.00 | 0.00 | 0.01 | 43 | 995.5 | |
| 20260503220329 | 81 | 0.0 | 0.0 | 0.00 | 0.00 | 0.01 | 40 | 995.5 | |
| 20260503215816 | 81 | 0.0 | 0.0 | 0.00 | 0.00 | 0.01 | 42 | 995.8 | |
| 20260503215328 | 81 | 0.0 | 0.0 | 0.00 | 0.00 | 0.01 | 40 | 995.8 | |
| 20260503214833 | 81 | 0.0 | 0.0 | 0.00 | 0.00 | 0.01 | 41 | 995.8 | |
| 20260503214313 | 81 | 0.0 | 0.0 | 0.00 | 0.00 | 0.01 | 44 | 995.9 | |
| 20260503213826 | 81 | 0.0 | 0.0 | 0.00 | 0.00 | 0.01 | 43 | 995.9 | |
| 20260503213331 | 81 | 0.0 | 0.0 | 0.00 | 0.00 | 0.01 | 45 | 995.9 | |
| 20260503212817 | 81 | 0.0 | 0.0 | 0.00 | 0.00 | 0.01 | 42 | 996.0 | |
| 20260503212350 | 81 | 0.0 | 0.0 | 0.00 | 0.00 | 0.01 | 45 | 996.0 | |
| 20260503211815 | 81 | 0.0 | 0.0 | 0.00 | 0.00 | 0.01 | 46 | 996.0 | |
| 20260503211327 | 81 | 0.0 | 0.0 | 0.00 | 0.00 | 0.01 | 45 | 996.3 | |
| 20260503210812 | 81 | 0.0 | 0.0 | 0.00 | 0.00 | 0.01 | 43 | 996.3 | |
| 20260503210337 | 81 | 0.0 | 0.0 | 0.00 | 0.00 | 0.01 | 47 | 996.3 | |
| 20260503205826 | 81 | 0.0 | 0.0 | 0.00 | 0.00 | 0.01 | 47 | 996.5 |